Location: Haliburton Scout Reserve
(45.0900°N, 78.3200°W)
Time: 03:00:47
(UTC-04:00)

NANOSAT C BR1 - Pass Details

Date: 24 May 2022
Orbit: 583 x 601 km, 98.0° (Epoch: 27 June)

Event Time Altitude Azimuth Distance (km) Brightness Sun altitude
Rises 04:25:49 0° 359° (N) 2,821 ? -10.5°
Reaches altitude 10° 04:28:24 10° 343° (NNW) 1,915 ? -10.2°
Maximum altitude 04:31:26 20° 296° (WNW) 1,374 ? -9.8°
Enters shadow 04:34:19 11° 250° (WSW) 1,862 ? -9.4°
